[Date Prev][Date Next][Thread Prev][Thread Next] - [Date Index][Thread Index][Author Index]

2 Line ISS Keps 7-10



ISS
1 25544U 98067A   02191.08394676  .00022867  00000-0  29536-3 0  6479
2 25544  51.6393 298.0346 0008027 340.5142  14.1760 15.58827090207594


----
Via the sarex mailing list at AMSAT.ORG courtesy of AMSAT-NA.
To unsubscribe, send "unsubscribe sarex" to Majordomo@amsat.org



AMSAT Top AMSAT Home